Location: Blue Moon Observatory
(43.0710°N, 82.8810°W)
Time: 11:59:24
(UTC-05:00)

Tiangong 2 - Visible Passes

Search period start: 23 November 2017 00:00
Search period end: 03 December 2017 00:00
Orbit: 386 x 392 km, 42.8° (Epoch: 22 November)

Date Brightness Start Highest point End Pass type
(mag) Time Alt. Az. Time Alt. Az. Time Alt. Az.
26 Nov 4.0 06:20:24 10° S 06:22:23 15° SSE 06:24:23 10° ESE visible
27 Nov 2.5 06:57:39 10° SW 07:00:39 38° SSE 07:03:40 10° E visible
28 Nov 3.1 06:00:29 14° SSW 06:02:33 25° SSE 06:05:16 10° E visible
29 Nov 4.2 05:05:31 14° SE 05:05:31 14° SE 05:06:35 10° ESE visible
29 Nov 1.6 06:37:51 10° WSW 06:40:55 57° SSE 06:44:04 10° E visible
30 Nov 2.1 05:42:42 40° SSE 05:42:44 40° SSE 05:45:46 10° E visible
01 Dec 1.1 06:19:43 29° WSW 06:21:11 76° S 06:24:23 10° E visible
02 Dec 3.1 05:24:19 29° E 05:24:19 29° E 05:26:05 10° E visible
02 Dec 1.1 06:56:38 11° W 06:59:43 87° S 07:02:56 10° E visible
